Weather WX

World > North America > United States > Pennsylvania

Conway, Pennsylvania Regional Weather

Lat: 40.66N, Lon: 80.24W
Wx Zone: PAZ020
Warning FLW WEATHER ALERT - FLASH FLOOD WATCH (More Info. Click Here) Warning
Feedback

Conway, PA Regional Weather

Expires:201906200000;;753908
ASUS41 KCTP 192310
RWRCTP

REGIONAL WEATHER ROUNDUP
NATIONAL WEATHER SERVICE STATE COLLEGE PA
700 PM EDT WED JUN 19 2019

Note: "fair" indicates few or no clouds below 12,000 feet with no 
significant weather and/or obstructions to visibility.

* = STATION THAT DOES NOT REPORT PRECIPITATION /E.G. RAIN...SNOW...ETC/
    THUNDER OR FOG.


PAZ002>004-007>009-013>016-020>023-029>032-200000-
WESTERN PENNSYLVANIA
  
CITY           SKY/WX    TMP DP  RH WIND       PRES   REMARKS
ERIE           FAIR      76  62  62 NE8       29.70F                  
MEADVILLE      FAIR      77  65  66 NE8       29.71F                  
FRANKLIN*      PTSUNNY   73  67  81 S7        29.73S                  
NEW CASTLE     CLOUDY    76  69  79 VRB3      29.71F                  
BEAVER COUNTY  PTSUNNY   73  68  83 NE3       29.72S                  
BUTLER*        PTSUNNY   73  70  90 CALM      29.72S                  
PITTSBURGH INT FAIR      77  66  68 SW6       29.70F                  
PITTSBURGH     FAIR      75  69  81 SE5       29.70S                  
INDIANA*       MOSUNNY   77  68  73 SW5       29.76S                  
LATROBE        MOSUNNY   77  70  78 CALM      29.72F                  
WASHINGTON CO* FAIR      77  71  82 N5        29.72                   
$$


SKY/WX - Weather  TMP - Temperature  DP - Dew Point  RH - Relative Humidity
WIND - Wind Direction/Speed PRES - Barometric Pressure VSB - Visibility
WCI - Wind Chill Index E13G22 Wind - East Wind 13 mph/Gusts of 22 mph